Home   Weather   Santa Cruz de Tenerife   Past weeks

Flag for Spain Past Weather in Santa Cruz de Tenerife, Canary Islands, Spain — Yesterday and Last 2 Weeks

Now
61 °F

Passing clouds.


Feels Like: 61 °F
Forecast: 68 / 77 °F
Wind: 2 mph from North

Location: Tenerife / Los Rodeos

Current Time: Apr 27, 2017 at 12:52:22 am

Latest Report: Apr 27, 2017 at 12:00 am


Visibility: N/A

Pressure: 29.92 "Hg

Humidity: 100%

Dew Point: 61 °F

Location of Santa Cruz de TenerifeLocation

Past Weather in Santa Cruz de Tenerife — Graph

°F

Santa Cruz de Tenerife Temperature Yesterday

Maximum temperature yesterday: 68 °F (at 10:30 am)
Minimum temperature yesterday: 57 °F (at 2:30 am)
Average temperature yesterday: 63 °F

High & Low Weather Summary for the Past Weeks

 TemperatureHumidityPressure
High90 °F (Apr 17, 1:00 pm)100% (Apr 12, 1:30 am)30.24 "Hg (Apr 12, 1:30 am)
Low54 °F (Apr 14, 5:00 am)13% (Apr 17, 5:00 pm)29.86 "Hg (Apr 19, 6:30 am)
Average64 °F71%30.05 "Hg
* Reported Apr 11 11:00 pm — Apr 26 11:30 pm, Santa Cruz de Tenerife, Weather by CustomWeather, © 2017

Note: Actual official high and low records may vary slightly from our data, if they occured in-between our weather recording intervals... More about our weather records

Advertising

Santa Cruz de Tenerife Weather History for the Previous 24 Hours

Scroll right to see more
 ConditionsComfort  
Time TempWeatherWind HumidityBarometerVisibility
11:30 pm
Wed, Apr 26
61 °FPassing clouds.5 mph100%29.92 "HgN/A
11:00 pm61 °FDrizzle. Fog.7 mph100%29.92 "Hg3 mi
10:30 pm63 °FMild.1 mph100%29.92 "HgN/A
10:00 pm63 °FFog.No wind94%29.92 "Hg5 mi
9:35 pm63 °FMild.1 mph100%29.92 "Hg4 mi
9:00 pm63 °FFog.2 mph94%29.89 "HgN/A
8:30 pm63 °FFog.5 mph94%29.89 "HgN/A
7:30 pm64 °FFog.3 mph94%29.89 "HgN/A
7:00 pm63 °FFog.7 mph100%29.89 "HgN/A
6:30 pm64 °FBroken clouds.8 mph94%29.89 "HgN/A
6:10 pm64 °FBroken clouds.7 mph94%29.89 "Hg6 mi
6:00 pm64 °FBroken clouds.9 mph94%29.89 "Hg5 mi
5:43 pm64 °FMild.9 mph94%29.89 "Hg1 mi
5:30 pm64 °FBroken clouds.10 mph94%29.89 "Hg6 mi
5:00 pm64 °FFog.7 mph94%29.89 "HgN/A
4:30 pm63 °FFog.10 mph94%29.92 "HgN/A
4:00 pm63 °FBroken clouds.8 mph100%29.92 "Hg4 mi
3:30 pm64 °FDrizzle. Fog.9 mph94%29.92 "Hg0 mi
3:22 pm64 °FDrizzle. Broken clouds.9 mph94%29.92 "Hg4 mi
3:00 pm66 °FFog.10 mph83%29.92 "HgN/A
2:30 pm68 °FFog.10 mph78%29.92 "HgN/A
2:00 pm66 °FFog.8 mph83%29.92 "HgN/A
1:00 pm68 °FFog.7 mph69%29.95 "HgN/A
12:30 pm68 °FScattered clouds.9 mph78%29.95 "HgN/A
12:00 pm68 °FScattered clouds.8 mph73%29.95 "HgN/A
11:30 am68 °FScattered clouds.6 mph73%29.95 "HgN/A
11:00 am68 °FPassing clouds.8 mph73%29.95 "HgN/A
10:30 am68 °FPassing clouds.7 mph69%29.95 "HgN/A
10:00 am66 °FPassing clouds.5 mph73%29.92 "HgN/A
9:30 am64 °FPassing clouds.2 mph78%29.92 "HgN/A
9:00 am64 °FPassing clouds.No wind73%29.92 "HgN/A
8:30 am63 °FPassing clouds.5 mph73%29.92 "HgN/A
8:00 am59 °FPassing clouds.1 mph82%29.92 "HgN/A
7:30 am59 °FPassing clouds.2 mph82%29.92 "HgN/A
7:00 am61 °FPassing clouds.3 mph83%29.92 "HgN/A
6:30 am61 °FPassing clouds.5 mph83%29.92 "HgN/A
6:00 am61 °FClear.1 mph77%29.92 "Hg10 mi
5:30 am59 °FCool.1 mph77%29.92 "HgN/A
5:00 am61 °FPassing clouds.7 mph77%29.92 "HgN/A
4:30 am61 °FPassing clouds.8 mph83%29.92 "HgN/A
4:00 am59 °FCool.2 mph88%29.92 "HgN/A
3:30 am59 °FPassing clouds.3 mph88%29.95 "HgN/A
3:00 am59 °FPassing clouds.3 mph88%29.95 "HgN/A
2:30 am57 °FPassing clouds.6 mph94%29.95 "HgN/A
2:00 am59 °FPassing clouds.1 mph94%29.95 "Hg6 mi
1:30 am59 °FPassing clouds.No wind88%29.98 "HgN/A
1:00 am59 °FCool.No wind94%29.98 "HgN/A
12:30 am59 °FCool.No wind94%29.98 "HgN/A
12:00 am61 °FPassing clouds.No wind94%29.98 "HgN/A
Weather by CustomWeather, © 2017

See weather overviewHow to use our weather pages